Date String (YYYY-MM-DD hh:mm:ss) UTC,Instrument flags,Ambient pressure (hPa),Sample flow (lpm),Bypass flow (lpm),Sample temperature (°C),Ambient temperature (°C),ASC tube jacket temperature (°C),LED temperature (°C),Box temperature (°C),Sample RH (%),Span deviation,Mass concentration (μg/m³),Mass concentration (μg/m³),Mass concentration (μg/m³)
DateTimeUTC,F1_M11,P_M11,Q1_M11,Q2_M11,T1_M11,T2_M11,T3_M11,T4_M11,T5_M11,U1_M11,ZSPAN_M11,X0_M11,X2_M11,X1_M11
2022-09-30 18:00:00,,0826.0,5.00,0.00,29.4,27.7,00.0,38.1,31.3,21.6,0000.0,0015.39,0004.41,0003.73
2022-09-30 18:01:00,,0825.9,5.01,0.00,29.4,27.9,00.0,38.1,31.3,21.2,0000.0,0015.35,0004.38,0003.71
2022-09-30 18:02:00,,0825.9,4.98,0.00,29.5,28.1,00.0,38.1,31.4,21.1,0000.0,0014.97,0004.39,0003.70
2022-09-30 18:03:00,,0825.9,5.00,0.00,29.5,28.2,00.0,38.1,31.4,20.7,0000.0,0013.81,0004.37,0003.70
2022-09-30 18:04:00,,0826.0,4.99,0.00,29.5,28.3,00.0,38.1,31.5,20.6,0000.0,0012.92,0004.34,0003.68
2022-09-30 18:05:00,,0825.9,5.02,0.00,29.6,28.5,00.0,38.2,31.5,20.6,0000.0,0012.76,0004.32,0003.67
2022-09-30 18:06:00,,0825.9,4.99,0.00,29.6,28.6,00.0,38.2,31.6,20.6,0000.0,0012.72,0004.30,0003.67
2022-09-30 18:07:00,,0826.0,5.02,0.00,29.6,28.4,00.0,38.2,31.6,20.1,0000.0,0011.88,0004.28,0003.66
2022-09-30 18:08:00,,0826.0,5.00,0.00,29.6,27.1,00.0,38.2,31.5,20.4,0000.0,0011.78,0004.30,0003.65
2022-09-30 18:09:00,,0825.9,5.00,0.00,29.6,26.2,00.0,38.2,31.4,20.5,0000.0,0010.93,0004.27,0003.64
2022-09-30 18:10:00,,0825.9,4.99,0.00,29.5,26.4,00.0,38.1,31.3,20.5,0000.0,0010.82,0004.25,0003.64
2022-09-30 18:11:00,,0826.0,4.99,0.00,29.4,26.6,00.0,38.1,31.2,20.5,0000.0,0010.20,0004.23,0003.64
2022-09-30 18:12:00,,0825.9,5.00,0.00,29.4,27.0,00.0,38.1,31.2,20.9,0000.0,0009.40,0004.21,0003.63
2022-09-30 18:13:00,,0825.9,5.00,0.00,29.4,27.3,00.0,38.1,31.2,20.7,0000.0,0009.70,0004.24,0003.63
2022-09-30 18:14:00,,0825.9,5.00,0.00,29.4,27.6,00.0,38.1,31.3,20.0,0000.0,0009.81,0004.24,0003.62
2022-09-30 18:15:00,,0825.9,5.01,0.00,29.4,27.8,00.0,38.1,31.3,19.9,0000.0,0009.99,0004.22,0003.61
2022-09-30 18:16:00,,0825.9,4.99,0.00,29.5,28.0,00.0,38.1,31.4,19.6,0000.0,0010.36,0004.21,0003.59
2022-09-30 18:17:00,,0825.9,5.00,0.00,29.5,28.1,00.0,38.1,31.4,20.0,0000.0,0010.35,0004.20,0003.57
2022-09-30 18:18:00,,0825.9,5.01,0.00,29.5,28.3,00.0,38.1,31.4,20.0,0000.0,0010.38,0004.21,0003.57
2022-09-30 18:19:00,,0825.9,4.99,0.00,29.5,28.4,00.0,38.1,31.5,20.2,0000.0,0010.43,0004.18,0003.58
2022-09-30 18:20:00,,0825.8,5.01,0.00,29.6,28.5,00.0,38.2,31.5,20.0,0000.0,0010.72,0004.13,0003.56
2022-09-30 18:21:00,,0825.8,4.99,0.00,29.6,28.6,00.0,38.2,31.6,20.1,0000.0,0010.27,0004.09,0003.55
2022-09-30 18:22:00,,0825.8,5.01,0.00,29.7,27.7,00.0,38.2,31.6,20.1,0000.0,0010.43,0004.08,0003.55
2022-09-30 18:23:00,,0825.8,5.00,0.00,29.6,26.5,00.0,38.2,31.4,20.3,0000.0,0010.75,0004.07,0003.55
2022-09-30 18:24:00,,0825.9,4.99,0.00,29.5,26.3,00.0,38.1,31.4,20.3,0000.0,0010.90,0004.03,0003.55
2022-09-30 18:25:00,,0825.8,5.00,0.00,29.5,26.5,00.0,38.1,31.2,20.5,0000.0,0011.33,0004.03,0003.54
2022-09-30 18:26:00,,0825.8,5.00,0.00,29.4,26.9,00.0,38.1,31.2,20.6,0000.0,0011.01,0004.05,0003.55
2022-09-30 18:27:00,,0825.8,5.01,0.00,29.4,27.2,00.0,38.1,31.2,20.5,0000.0,0010.16,0004.07,0003.56
2022-09-30 18:28:00,,0825.8,5.00,0.00,29.4,27.5,00.0,38.1,31.3,20.4,0000.0,0010.51,0004.09,0003.57
2022-09-30 18:29:00,,0825.8,4.99,0.00,29.4,27.7,00.0,38.1,31.3,20.8,0000.0,0011.11,0004.09,0003.56
2022-09-30 18:30:00,,0826.3,5.01,0.00,29.4,27.9,00.0,38.1,31.3,20.0,0000.0,0011.26,0004.10,0003.55
2022-09-30 18:31:00,,0826.2,4.99,0.00,29.5,28.1,00.0,38.1,31.4,19.7,0000.0,0010.51,0004.08,0003.53
2022-09-30 18:32:00,,0826.1,5.02,0.00,29.5,28.3,00.0,38.1,31.4,20.7,0000.0,0010.48,0004.07,0003.51
2022-09-30 18:33:00,,0826.1,4.99,0.00,29.5,28.4,00.0,38.1,31.5,20.2,0000.0,0010.77,0004.05,0003.48
2022-09-30 18:34:00,,0825.8,5.01,0.00,29.6,28.5,00.0,38.2,31.5,20.0,0000.0,0010.35,0004.03,0003.44
2022-09-30 18:35:00,,0825.8,4.99,0.00,29.6,28.6,00.0,38.2,31.6,20.0,0000.0,0010.01,0003.97,0003.41
2022-09-30 18:36:00,,0825.7,4.99,0.00,29.6,28.6,00.0,38.2,31.6,19.9,0000.0,0009.20,0003.92,0003.38
2022-09-30 18:37:00,,0825.7,5.00,0.00,29.6,27.5,00.0,38.2,31.5,19.8,0000.0,0008.74,0003.85,0003.36
2022-09-30 18:38:00,,0825.7,5.01,0.00,29.6,26.2,00.0,38.2,31.3,19.4,0000.0,0008.77,0003.80,0003.32
2022-09-30 18:39:00,,0825.6,5.00,0.00,29.5,26.1,00.0,38.1,31.3,19.3,0000.0,0008.49,0003.72,0003.29
2022-09-30 18:40:00,,0825.6,5.00,0.00,29.4,26.4,00.0,38.1,31.2,19.3,0000.0,0008.56,0003.68,0003.27
2022-09-30 18:41:00,,0825.7,4.99,0.00,29.4,26.8,00.0,38.1,31.1,19.2,0000.0,0008.28,0003.63,0003.25
2022-09-30 18:42:00,,0825.7,4.99,0.00,29.4,27.1,00.0,38.1,31.2,19.3,0000.0,0008.21,0003.63,0003.24
2022-09-30 18:43:00,,0825.7,5.01,0.00,29.4,27.4,00.0,38.1,31.2,19.1,0000.0,0008.14,0003.60,0003.23
2022-09-30 18:44:00,,0825.7,5.00,0.00,29.4,27.7,00.0,38.1,31.3,19.1,0000.0,0007.98,0003.58,0003.22
2022-09-30 18:45:00,,0825.7,4.99,0.00,29.4,27.9,00.0,38.1,31.3,18.9,0000.0,0008.36,0003.53,0003.21
2022-09-30 18:46:00,,0825.8,5.01,0.00,29.4,28.0,00.0,38.1,31.3,19.3,0000.0,0008.41,0003.55,0003.20
2022-09-30 18:47:00,,0825.8,4.99,0.00,29.5,28.2,00.0,38.1,31.4,19.0,0000.0,0008.46,0003.56,0003.19
2022-09-30 18:48:00,,0825.7,5.01,0.00,29.5,28.4,00.0,38.1,31.4,18.7,0000.0,0008.51,0003.55,0003.15
2022-09-30 18:49:00,,0825.7,5.00,0.00,29.5,28.5,00.0,38.1,31.5,18.9,0000.0,0008.54,0003.49,0003.10
2022-09-30 18:50:00,,0825.7,4.99,0.00,29.5,28.5,00.0,38.1,31.5,18.0,0000.0,0008.45,0003.43,0003.01
2022-09-30 18:51:00,,0825.6,4.99,0.00,29.6,28.6,00.0,38.2,31.6,17.6,0000.0,0008.16,0003.35,0002.88
2022-09-30 18:52:00,,0825.6,5.02,0.00,29.6,28.6,00.0,38.2,31.6,17.7,0000.0,0007.73,0003.23,0002.71
2022-09-30 18:53:00,,0825.6,5.00,0.00,29.6,27.5,00.0,38.2,31.5,17.9,0000.0,0007.67,0003.13,0002.57
2022-09-30 18:54:00,,0825.6,5.00,0.00,29.6,26.8,00.0,38.2,31.5,17.9,0000.0,0007.62,0003.04,0002.44
2022-09-30 18:55:00,,0825.5,5.00,0.00,29.6,26.9,00.0,38.2,31.4,18.1,0000.0,0007.48,0002.88,0002.33
2022-09-30 18:56:00,,0825.5,5.00,0.00,29.5,27.2,00.0,38.1,31.3,18.3,0000.0,0005.86,0002.77,0002.22
2022-09-30 18:57:00,,0825.6,4.98,0.00,29.5,27.5,00.0,38.1,31.3,18.7,0000.0,0006.17,0002.64,0002.11
2022-09-30 18:58:00,,0825.6,5.01,0.00,29.5,27.8,00.0,38.1,31.4,18.4,0000.0,0005.93,0002.46,0002.01
2022-09-30 18:59:00,,0825.6,5.00,0.00,29.5,28.0,00.0,38.2,31.4,18.3,0000.0,0005.64,0002.30,0001.92
